Torna al catalogo

USA 32

AttivoMilitarePO
NORAD 19460·PAYLOAD·🇺🇸 United States

Lanciato Sep 5, 1988 da Vandenberg Space Force Base

Loading…

Prossimi Passaggi (prossime 24 ore)

TLE

AggiornatoSource: Space-Track

Epoca: Sep 13, 2026, 12:59 UTC

1 19460U 88078A   26256.54164724  .00000120  00000-0  35575-4 0  9997
2 19460  84.9825  61.6703 0003455 152.1831 207.9548 14.34462704121856

Traccia USA 32 in tempo reale con AllMySat

Download on the App Store